TimeEST,TemperatureF,Dew PointF,Humidity,Sea Level PressureIn,VisibilityMPH,Wind Direction,Wind SpeedMPH,Gust SpeedMPH,PrecipitationIn,Events,Conditions,WindDirDegrees,DateUTC
12:53 AM,28.0,18.0,66,30.09,10.0,West,8.1,-,N/A,,Clear,280,2013-02-25 05:53:00
1:53 AM,28.9,19.0,67,30.10,10.0,West,9.2,-,N/A,,Mostly Cloudy,270,2013-02-25 06:53:00
2:53 AM,28.9,18.0,64,30.10,10.0,West,8.1,-,N/A,,Scattered Clouds,280,2013-02-25 07:53:00
3:53 AM,28.9,18.0,64,30.11,10.0,WSW,4.6,-,N/A,,Overcast,250,2013-02-25 08:53:00
4:53 AM,28.0,19.0,69,30.13,10.0,WNW,8.1,-,N/A,,Overcast,290,2013-02-25 09:53:00
5:53 AM,28.0,18.0,66,30.13,10.0,NW,9.2,-,N/A,,Mostly Cloudy,310,2013-02-25 10:53:00
6:53 AM,27.0,18.0,69,30.17,10.0,WNW,10.4,-,N/A,,Clear,290,2013-02-25 11:53:00
7:53 AM,30.9,19.0,61,30.17,10.0,NW,9.2,-,N/A,,Partly Cloudy,320,2013-02-25 12:53:00
8:53 AM,34.0,19.9,56,30.18,10.0,NNW,11.5,-,N/A,,Clear,340,2013-02-25 13:53:00
9:53 AM,37.0,21.9,54,30.19,10.0,NNW,8.1,-,N/A,,Clear,330,2013-02-25 14:53:00
10:53 AM,39.9,24.1,53,30.19,10.0,Variable,6.9,-,N/A,,Clear,0,2013-02-25 15:53:00
11:53 AM,42.1,25.0,51,30.19,10.0,North,8.1,-,N/A,,Clear,10,2013-02-25 16:53:00
12:53 PM,43.0,24.1,47,30.17,10.0,NNE,9.2,-,N/A,,Clear,30,2013-02-25 17:53:00
1:53 PM,43.0,21.9,43,30.18,10.0,NW,4.6,-,N/A,,Partly Cloudy,320,2013-02-25 18:53:00
2:53 PM,44.1,23.0,43,30.16,10.0,NNW,5.8,-,N/A,,Scattered Clouds,340,2013-02-25 19:53:00
3:53 PM,45.0,23.0,42,30.15,10.0,NE,11.5,-,N/A,,Mostly Cloudy,40,2013-02-25 20:53:00
4:53 PM,44.1,21.9,42,30.17,10.0,North,8.1,-,N/A,,Clear,10,2013-02-25 21:53:00
5:53 PM,39.0,21.9,50,30.18,10.0,North,4.6,-,N/A,,Clear,10,2013-02-25 22:53:00
6:53 PM,37.9,23.0,55,30.20,10.0,NE,4.6,-,N/A,,Overcast,50,2013-02-25 23:53:00
7:53 PM,37.0,24.1,59,30.21,10.0,East,4.6,-,N/A,,Scattered Clouds,90,2013-02-26 00:53:00
8:53 PM,35.1,24.1,64,30.23,10.0,East,3.5,-,N/A,,Clear,100,2013-02-26 01:53:00
9:53 PM,33.1,23.0,66,30.22,9.0,ENE,4.6,-,N/A,,Clear,60,2013-02-26 02:53:00
10:53 PM,33.1,23.0,66,30.22,8.0,Calm,Calm,-,N/A,,Clear,0,2013-02-26 03:53:00
11:53 PM,30.9,23.0,72,30.21,7.0,East,3.5,-,N/A,,Clear,100,2013-02-26 04:53:00